Simultaneous Nadir Overpasses (SNOs) Predictions

Prediction of SNOs between GOES-16 and METOP-C Satellite Orbit:

Table of predicted SNOs for the next 14.0 days since TLE Epoch: 10/7/2023
Index Date Time (GOES-16) GOES-16 Lat,Lon METOP-C Lat,Lon Distance(km) Time Diff (sec)
1 10/07/2023 02:35:39 0.04, -75.20 -0.33, -76.90 194.06 80
2 10/08/2023 02:17:41 0.04, -75.20 0.79, -71.91 375.29 80
3 10/09/2023 14:33:52 -0.04, -75.23 0.26, -76.46 140.63 80
4 10/10/2023 14:13:14 -0.04, -75.24 -0.87, -71.47 429.24 80
5 10/12/2023 02:34:56 0.04, -75.23 -0.16, -76.07 95.98 80
6 10/13/2023 02:11:38 0.04, -75.24 0.97, -71.08 474.34 80
7 10/14/2023 14:33:09 -0.04, -75.29 0.06, -75.64 40.28 80
8 10/17/2023 02:28:53 0.04, -75.30 0.07, -75.25 6.43 80
9 10/19/2023 14:29:45 -0.03, -75.36 -0.13, -74.80 62.48 80
